Date,TemperatureHighF,TemperatureAvgF,TemperatureLowF,DewpointHighF,DewpointAvgF,DewpointLowF,HumidityHigh,HumidityAvg,HumidityLow,PressureMaxIn,PressureMinIn,WindSpeedMaxMPH,WindSpeedAvgMPH,GustSpeedMaxMPH,PrecipitationSumIn
2013-3-1,33,30,26,34,-69,-100,100,23,95,29.88,29.67,8,2,10,0.00
2013-3-2,27,24,22,-100,-100,-100,0,0,100,29.91,29.82,8,3,11,0.00
2013-3-3,25,23,20,-100,-100,-100,0,0,100,29.85,29.79,8,2,13,0.00
2013-3-4,30,26,21,-100,-100,-100,0,0,100,30.03,29.85,13,5,17,0.00
2013-3-5,32,27,25,-100,-100,-100,0,0,100,30.06,29.94,6,2,10,0.00
2013-3-6,40,33,24,-100,-100,-100,0,0,100,30.11,29.94,7,2,10,0.00
2013-3-7,36,34,31,32,-79,-100,90,14,85,30.26,30.11,4,1,6,0.00
2013-3-8,41,35,30,-100,-100,-100,0,0,100,30.38,30.23,7,1,11,0.00
2013-3-9,48,36,26,36,-91,-100,100,7,80,30.41,30.20,5,1,7,0.00
2013-3-10,65,49,33,-100,-100,-100,0,0,100,30.20,29.94,6,1,8,0.00
2013-3-11,57,54,50,37,-91,-100,50,3,43,29.97,29.64,9,3,15,0.00
2013-3-12,56,40,35,46,-49,-100,97,31,50,29.88,29.64,12,6,18,0.00
2013-3-13,38,32,23,32,-98,-100,99,1,95,29.91,29.79,15,7,28,0.00
2013-3-14,32,25,19,-100,-100,-100,0,0,100,30.03,29.91,14,6,25,0.00
2013-3-15,38,31,24,34,-80,-100,100,15,92,30.00,29.67,13,5,25,0.00
2013-3-16,30,26,20,-100,-100,-100,0,0,100,29.94,29.82,6,2,8,0.00
2013-3-17,30,24,19,-100,-100,-100,0,0,100,30.32,29.94,6,2,11,0.00
2013-3-18,34,25,17,34,-98,-100,100,2,99,30.32,29.70,10,4,19,0.00
2013-3-19,36,32,26,34,-53,-100,100,32,85,29.79,29.64,15,5,26,0.00
2013-3-20,34,27,22,-100,-100,-100,0,0,100,29.79,29.76,13,6,22,0.00
2013-3-21,30,25,18,-100,-100,-100,0,0,100,29.79,29.67,12,5,19,0.00
2013-3-22,32,28,25,-100,-100,-100,0,0,100,29.88,29.67,10,6,20,0.00
2013-3-23,38,33,28,-100,-100,-100,0,0,100,29.97,29.85,9,4,17,0.00
2013-3-24,38,33,26,-100,-100,-100,0,0,100,29.97,29.70,5,1,10,0.00
2013-3-25,39,35,32,-100,-100,-100,0,0,100,29.70,29.58,6,2,10,0.00
2013-3-26,46,38,31,-100,-100,-100,0,0,100,29.91,29.67,6,2,11,0.00
2013-3-27,45,36,32,34,-66,-100,100,24,82,30.03,29.88,13,5,17,0.00
2013-3-28,44,38,33,37,-34,-100,100,48,72,30.17,30.00,8,4,13,0.00
2013-3-29,51,42,36,-100,-100,-100,0,0,100,30.17,30.08,8,4,14,0.00
2013-3-30,53,41,29,-100,-100,-100,0,0,100,30.17,30.03,8,2,12,0.00
2013-3-31,59,44,33,43,-54,-100,95,28,47,30.03,29.58,8,2,13,0.00